Погода в Тосса-де-Маре

Испания     41°43′19″N   2°55′47″E
темп.,
°C
ветер,
м/с
пор.,
м/с
влажн.,
%
обл.,
%
осадки,
мм/ч
давл.,
гПа
погр.,
м
6 марта, сб
сб601:00+11ссз128488 0.0 102042
04:00+10ссв228957 0.0 102070
07:00+10св238472 0.0 1021244
10:00+12св356625 0.0 1023568
13:00+14всв446457 0.0 1024718
16:00+13всв4470100 0.0 1023430
19:00+11ссв3478100 0.0 1023176
22:00+9с338558 0.0 1024123
7 марта, вс
вс701:00+9с238675 0.0 102467
04:00+8ссз338977 0.0 102275
07:00+8с239189 0.0 102270
10:00+12с2475100 0.0 1021369
13:00+14в3364100 0.0 1021792
16:00+13вюв337394 0.1 1018475
19:00+11всв238897 0.1 1018174
22:00+10с2291100 0.0 101892
8 марта, пн
пн801:00+9с3492100 0.0 1018149
04:00+9с4793100 0.0 1016291
07:00+10ссв4989100 0.0 1017496
10:00+12св587495 0.0 1017903
13:00+15св576270 0.1 1017914
16:00+14св696175 0.0 1015928
19:00+11всв348054 0.0 1016121
22:00+10сз238125 0.0 1017104
9 марта, вт
вт901:00+10ссз227843 0.0 101850
04:00+9ссз227591 0.0 101765
07:00+8сз128176 0.0 101855
10:00+12ссв22610 0.0 1019368
13:00+13ююв32606 0.1 1019697
16:00+12ю367593 0.2 1018559
19:00+11юз348296 0.6 1019360
22:00+10з128767 0.0 1021174
10 марта, ср
ср1001:00+8ссв338470 0.0 1022155
04:00+8с337995 0.0 1022133
07:00+7ссз337288 0.0 102387
10:00+11ссв11577 0.0 1024243
13:00+12ю346214 0.0 1025513
16:00+12ююз45658 0.0 1024606
19:00+9ю34714 0.0 1024247
22:00+9юз23810 0.0 1026199